Lexington Weather

Lexington, Massachusetts, USA

68°F
7/3/2020 12:43pm 
  • Lexington Conditions: Overcast
  • Temperature: 67.8°F / 19.9°CColder 0.9°F than last hour.
  • Dew Point: 63.9°FDecreased 0.9°Fsince last hour.
  • Relative Humidity: 87
  • Wind: Wind from NNE NNE 1 mph, 10-min avg: 1 mph, gust: 4 mph
  • Barometer: 29.86 in Steady
  • Visibility: 10 miles
  • Rain Today: 0.00 in
  •   

Regional Weather Roundup
for Boston / Norton, MA

        
000
ASUS41 KBOX 282204
RWRBOX

REGIONAL WEATHER ROUNDUP
NATIONAL WEATHER SERVICE BOSTON/NORTON MA
600 PM EDT SUN JUN 28 2020

NOTE:  "FAIR" INDICATES FEW OR NO CLOUDS BELOW 12,000 FEET WITH NO 
SIGNIFICANT WEATHER AND/OR OBSTRUCTIONS TO VISIBILITY.

MAZALL-282300-
EASTERN MASSACHUSETTS
  
CITY           SKY/WX    TMP DP  RH WIND       PRES   REMARKS
BOSTON         NOT AVBL                                               
BEVERLY        CLOUDY    70  65  84 E6        29.72S                  
LAWRENCE       CLOUDY    73  68  84 VRB5      29.74S                  
BEDFORD        CLOUDY    70  65  84 SE5       29.72R                  
BLUE HILL        N/A     64  63  96 SE13      29.73F                  
NORWOOD        LGT RAIN  67  62  84 S10       29.74R                  
MARSHFIELD     PTSUNNY   73  72  94 NE3       29.72R                  
PLYMOUTH       MOSUNNY   75  68  78 SW9       29.74R                  
TAUNTON        MOSUNNY   79  69  71 VRB3      29.73R                  
NEW BEDFORD    MOSUNNY   77  70  79 S8        29.73S                  
$$

MAZALL-282300-
CAPE COD AND THE ISLANDS
  
CITY           SKY/WX    TMP DP  RH WIND       PRES   REMARKS
FALMOUTH       SUNNY     75  68  78 S9        29.73F                  
HYANNIS        SUNNY     75  69  81 S7        29.72F                  
CHATHAM        MOSUNNY   66  62  87 VRB3      29.76F                  
PROVINCETOWN   CLOUDY    74  68  81 S10       29.73F                  
NANTUCKET      TSTM      67  65  93 S8        29.75S FOG              
MARTHAS VNYRD  MOSUNNY   73  68  84 S9        29.73F                  
$$
 
MAZALL-282300-
CENTRAL AND WESTERN MASSACHUSETTS
  
CITY           SKY/WX    TMP DP  RH WIND       PRES   REMARKS
WORCESTER      CLOUDY    72  66  81 E13G21    29.74R                  
FITCHBURG      CLOUDY    76  65  68 SE7       29.72R                  
ORANGE         CLOUDY    77  70  79 CALM      29.72S                  
SPRINGFIELD    CLOUDY    73  71  94 N3        29.67F                  
WESTFIELD      CLOUDY    74  66  76 CALM      29.69S                  
NORTH ADAMS    CLOUDY    73  69  87 NE5       29.72S                  
PITTSFIELD     LGT RAIN  66  63  90 S3        29.73F                  
$$
 
RIZALL-282300-
RHODE ISLAND
  
CITY           SKY/WX    TMP DP  RH WIND       PRES   REMARKS
PROVIDENCE     PTSUNNY   75  70  84 SE9       29.73R                  
NEWPORT        MOSUNNY   74  69  85 S3        29.74R                  
BLOCK ISLAND   PTSUNNY   72  68  87 SW13      29.73S                  
SMITHFIELD     CLOUDY    68  64  87 E14G23    29.77R                  
WESTERLY       PTSUNNY   76  67  73 SW7       29.73R                  
$$
 
CTZALL-282300-
CONNECTICUT
  
CITY           SKY/WX    TMP DP  RH WIND       PRES   REMARKS
BRADLEY INTL   CLOUDY    78  66  66 VRB5      29.69R                  
HARTFORD       CLOUDY    79  67  66 S7        29.68F                  
BRIDGEPORT     CLOUDY    73  65  75 CALM      29.73R                  
DANBURY        CLOUDY    75  71  87 E3        29.74F                  
GROTON         CLOUDY    71  68  90 SW5       29.71S                  
NEW HAVEN      TSTM      76  72  87 N9        29.72S FOG              
CHESTER        NOT AVBL                                               
MERIDEN        CLOUDY    71  66  84 S8        29.71F                  
WILLIMANTIC    CLOUDY    80  71  74 S8        29.70S                  
$$

MEZ002-015-021-024-NHZ003-005-008-011-012-014-VTZ005-008-282300-
NORTHERN NEW ENGLAND
  
CITY           SKY/WX    TMP DP  RH WIND       PRES   REMARKS
PORTLAND ME    PTSUNNY   71  64  78 SE6       29.77R                  
BANGOR ME      PTSUNNY   74  58  57 S14       29.77R                  
CONCORD NH     CLOUDY    77  66  68 SE8       29.70F                  
MANCHESTER NH  CLOUDY    78  63  59 SE16      29.70S                  
NASHUA NH      CLOUDY    77  70  79 SE16      29.73R                  
PORTSMOUTH NH  PTSUNNY   70  67  89 SE13      29.71                   
JAFFREY NH     PTSUNNY   79  62  56 S6        29.74S                  
KEENE NH       PTSUNNY   79  66  64 SW3       29.71F                  
BURLINGTON VT  CLOUDY    76  66  71 NW5       29.72S                  
MT. WASHINGTON PTSUNNY   54  50  87 SW8         N/A  THUNDER          
$$

NYZ052-076-282300-
EASTERN NEW YORK
  
CITY           SKY/WX    TMP DP  RH WIND       PRES   REMARKS
ALBANY         CLOUDY    75  64  68 S3        29.71F                  
NEW YORK CITY  PTSUNNY   84  65  52 E10       29.69R                  
$$
 
ANZALL-282300-
MARINE OBSERVATIONS
  
STATION/POSITION TIME  TEMP    WIND        PRES    VSBY  WAVE
                       AIR SEA DIR/SP/G                  HT/PER
                 (UTC) (F)     (DEG/KT/KT) (MB)    (MI)  (FT/S)
BOSTON BUOY      2150   69 69  300/  4/  4 1005.5R         2/ 7
BUZZARDS BAY     2100          140/  8/  9 1007.9F
NANTUCKET SOUND  2150   68 71  160/ 12/ 14 1006.0F         1/ 7
MASS BAY-STELLWA 2104   67     140/ 10/ 10 1003.9F  1 7/8  2/ 6
ISLE OF SHOALS   2100   68     130/ 13/ 14 1005.9F
S OF BLOCK IS    2126      71                N/A           3/ 6
$$

......................KEY.........................
  SKY/WX - SKY CONDITION/PRESENT WEATHER
  TMP    - TEMPERATURE IN FAHRENHEIT
  DWPT   - DEWPOINT IN FAHRENHEIT
  RH     - RELATIVE HUMIDITY IN PERCENT
  WIND   - DIRECTION AND SPEED IN MPH
  PRES   - MEAN SEA LEVEL PRESSURE IN INCHES OF HG
  WCI    - WIND CHILL INDEX
  VSB    - VISIBILITY IN MILES
  HX     - HEAT INDEX
  TC     - TEMPERATURE IN CELSIUS
  VRB    - VARIABLE WIND DIRECTION
  N/A    - NOT AVAILABLE
  
      

Other recent Regional Weather Roundups

Fri Jul 3, 12:04pm

Fri Jul 3, 11:04am

Fri Jul 3, 10:04am

Fri Jul 3, 9:04am

Fri Jul 3, 8:04am

Fri Jul 3, 7:04am

Fri Jul 3, 6:04am

Fri Jul 3, 5:04am

Fri Jul 3, 4:04am

Fri Jul 3, 3:04am

Fri Jul 3, 2:04am

Fri Jul 3, 1:04am

Fri Jul 3, 12:04am

Thu Jul 2, 11:05pm

Thu Jul 2, 10:04pm

Thu Jul 2, 9:04pm

Thu Jul 2, 8:04pm

Thu Jul 2, 7:05pm

Thu Jul 2, 6:04pm

Thu Jul 2, 5:05pm

Thu Jul 2, 4:04pm

Thu Jul 2, 3:04pm

Thu Jul 2, 2:04pm

Thu Jul 2, 1:05pm

Thu Jul 2, 12:04pm

Thu Jul 2, 11:04am

Thu Jul 2, 10:05am

Thu Jul 2, 9:05am

Thu Jul 2, 8:04am

Thu Jul 2, 7:04am

Thu Jul 2, 6:05am

Thu Jul 2, 5:04am

Thu Jul 2, 4:04am

Thu Jul 2, 3:04am

Thu Jul 2, 2:04am

Thu Jul 2, 1:04am

Thu Jul 2, 12:05am

Wed Jul 1, 11:05pm

Wed Jul 1, 10:04pm

Wed Jul 1, 9:04pm

Wed Jul 1, 8:04pm

Wed Jul 1, 7:04pm

Wed Jul 1, 6:04pm

Wed Jul 1, 5:05pm

Wed Jul 1, 4:04pm

Wed Jul 1, 3:04pm

Wed Jul 1, 2:04pm

Wed Jul 1, 1:04pm

Wed Jul 1, 12:04pm

Wed Jul 1, 11:04am

Wed Jul 1, 10:04am

Wed Jul 1, 9:04am

Wed Jul 1, 8:05am

Wed Jul 1, 7:04am

Wed Jul 1, 6:04am

Wed Jul 1, 5:04am

Wed Jul 1, 4:04am

Wed Jul 1, 3:04am

Wed Jul 1, 2:04am

Wed Jul 1, 1:04am

Wed Jul 1, 12:04am

Tue Jun 30, 11:04pm

Tue Jun 30, 10:05pm

Tue Jun 30, 9:04pm

Tue Jun 30, 8:05pm

Tue Jun 30, 7:05pm

Tue Jun 30, 6:04pm

Tue Jun 30, 5:04pm

Tue Jun 30, 4:04pm

Tue Jun 30, 3:04pm

Tue Jun 30, 2:04pm

Tue Jun 30, 1:04pm

Tue Jun 30, 12:04pm

Tue Jun 30, 11:04am

Tue Jun 30, 10:04am

Tue Jun 30, 9:04am

Tue Jun 30, 8:04am

Tue Jun 30, 7:04am

Tue Jun 30, 6:04am

Tue Jun 30, 5:04am

Tue Jun 30, 4:04am

Tue Jun 30, 3:04am

Tue Jun 30, 2:04am

Tue Jun 30, 1:04am

Tue Jun 30, 12:04am

Mon Jun 29, 11:04pm

Mon Jun 29, 10:05pm

Mon Jun 29, 9:04pm

Mon Jun 29, 8:05pm

Mon Jun 29, 7:04pm

Mon Jun 29, 6:04pm

Mon Jun 29, 5:04pm

Mon Jun 29, 4:05pm

Mon Jun 29, 3:04pm

Mon Jun 29, 2:04pm

Mon Jun 29, 1:04pm

Mon Jun 29, 12:04pm

Mon Jun 29, 11:04am

Mon Jun 29, 10:04am

Mon Jun 29, 9:04am

Mon Jun 29, 8:04am

Mon Jun 29, 7:04am

Mon Jun 29, 6:04am

Mon Jun 29, 5:04am

Mon Jun 29, 4:04am

Mon Jun 29, 3:04am

Mon Jun 29, 2:04am

Mon Jun 29, 1:04am

Mon Jun 29, 12:04am

Sun Jun 28, 11:05pm

Sun Jun 28, 10:04pm

Sun Jun 28, 9:05pm

Sun Jun 28, 8:04pm

Sun Jun 28, 7:04pm

Sun Jun 28, 5:04pm

Sun Jun 28, 4:04pm

Sun Jun 28, 3:04pm

Sun Jun 28, 2:05pm

Sun Jun 28, 1:04pm

Sun Jun 28, 12:04pm

Sun Jun 28, 11:04am

Sun Jun 28, 10:04am

Sun Jun 28, 9:04am

Sun Jun 28, 8:04am

Sun Jun 28, 7:04am

Sun Jun 28, 6:04am

Sun Jun 28, 5:04am

Sun Jun 28, 4:04am

Sun Jun 28, 3:04am

Sun Jun 28, 2:05am

Sun Jun 28, 1:04am

Sun Jun 28, 12:05am

Sat Jun 27, 11:04pm

Sat Jun 27, 10:04pm

Sat Jun 27, 9:04pm

Sat Jun 27, 8:04pm

Sat Jun 27, 7:04pm

Sat Jun 27, 6:04pm

Sat Jun 27, 5:04pm

Sat Jun 27, 4:05pm

Sat Jun 27, 3:04pm

Sat Jun 27, 2:04pm

Sat Jun 27, 1:05pm

Sat Jun 27, 12:04pm

Sat Jun 27, 11:04am

Sat Jun 27, 10:04am

Sat Jun 27, 9:04am

Sat Jun 27, 8:04am

Sat Jun 27, 7:04am

Sat Jun 27, 6:04am

Sat Jun 27, 5:05am

Sat Jun 27, 4:04am

Sat Jun 27, 3:04am

Sat Jun 27, 2:04am

Sat Jun 27, 1:04am

Sat Jun 27, 12:04am

Fri Jun 26, 11:04pm

Fri Jun 26, 10:04pm

Fri Jun 26, 9:05pm

Fri Jun 26, 8:04pm

Fri Jun 26, 7:05pm

Fri Jun 26, 6:04pm

Fri Jun 26, 5:04pm

Fri Jun 26, 4:04pm

Fri Jun 26, 3:04pm

Fri Jun 26, 2:05pm

Fri Jun 26, 1:04pm

Meta data:

ID: d9e74a32-328d-415d-933f-94742baf2f41
Link: https://api.weather.gov/products/d9e74a32-328d-415d-933f-94742baf2f41